Flag for West Bank Weather past 2 weeks in Bethlehem, West Bank

Now
54 °F

Sunny.


Feels Like: 53 °F
Forecast: 55 / 73 °F
Wind: 5 mph from East

Location: Ben Gurion International Airport

Current Time: Apr 25, 2015 at 7:59:03 AM

Latest Report: Apr 25, 2015 at 7:20 AM


Visibility: 10 mi

Pressure: 30.21 "Hg

Humidity: 67%

Dew point: 43 °F

Location of BethlehemLocation

Historic Weather in Bethlehem — Graph

°F

Bethlehem temperature yesterday

Maximum temperature yesterday: 66 °F (at 11:20 AM)
Minimum temperature yesterday: 54 °F (at 12:20 AM)
Average temperature yesterday: 61 °F

Past Weeks' High & Low Weather Summary

 TemperatureHumidityPressure
High90 °F (Apr 20, 1:20 PM)94% (Apr 11, 9:20 AM)30.30 "Hg (Apr 11, 9:20 AM)
Low46 °F (Apr 12, 1:50 PM)12% (Apr 20, 3:50 PM)29.83 "Hg (Apr 15, 1:20 PM)
Average62 °F65%30.05 "Hg
* Reported Apr 10 6:20 AM — Apr 25 6:20 AM, Bethlehem, Weather by CustomWeather, © 2015

Note: Actual official high and low records may vary slightly from our data, if they occured in-between our weather recording intervals... More about our weather records

Advertising

Bethlehem weather history for previous 24 hours

 ConditionsComfort  
Time TempWeatherWind HumidityBarometerVisibility
6:20 AM
Sat, Apr 25
52 °FClear.5 mph67%30.21 "Hg10 mi
5:50 AM50 °FClear.6 mph71%30.21 "Hg10 mi
5:20 AM52 °FClear.5 mph67%30.21 "Hg10 mi
4:50 AM52 °FClear.5 mph67%30.21 "Hg10 mi
4:20 AM50 °FClear.3 mph71%30.18 "Hg10 mi
3:50 AM52 °FClear.3 mph67%30.21 "Hg10 mi
3:20 AM52 °FClear.2 mph67%30.21 "Hg10 mi
2:50 AM54 °FClear.5 mph63%30.21 "Hg10 mi
2:20 AM54 °FClear.3 mph63%30.21 "Hg10 mi
1:50 AM54 °FClear.3 mph63%30.21 "Hg10 mi
1:20 AM54 °FClear.3 mph63%30.21 "Hg10 mi
12:50 AM54 °FClear.3 mph67%30.21 "Hg10 mi
12:20 AM54 °FClear.2 mph63%30.24 "Hg10 mi
11:50 PM
Fri, Apr 24
55 °FClear.2 mph59%30.24 "Hg10 mi
11:20 PM55 °FClear.5 mph59%30.24 "Hg10 mi
10:50 PM59 °FClear.5 mph51%30.24 "Hg10 mi
10:20 PM57 °FClear.6 mph55%30.24 "Hg10 mi
9:50 PM59 °FClear.5 mph51%30.24 "Hg10 mi
9:20 PM61 °FClear.2 mph48%30.24 "Hg10 mi
8:50 PM61 °FClear.3 mph48%30.24 "Hg10 mi
8:20 PM61 °FClear.5 mph48%30.24 "Hg10 mi
7:50 PM61 °FSunny.8 mph45%30.24 "Hg10 mi
7:20 PM63 °FSunny.9 mph42%30.21 "Hg10 mi
6:50 PM63 °FSunny.9 mph42%30.21 "Hg10 mi
6:20 PM64 °FSunny.13 mph37%30.21 "Hg10 mi
5:50 PM64 °FSunny.12 mph34%30.21 "Hg10 mi
5:20 PM66 °FSunny.12 mph35%30.21 "Hg10 mi
4:50 PM66 °FSunny.13 mph35%30.21 "Hg10 mi
4:20 PM66 °FSunny.14 mph32%30.21 "Hg10 mi
3:50 PM66 °FSunny.15 mph32%30.21 "Hg10 mi
3:20 PM66 °FSunny.14 mph37%30.21 "Hg10 mi
2:50 PM66 °FSunny.16 mph40%30.21 "Hg10 mi
2:20 PM66 °FSunny.15 mph40%30.21 "Hg10 mi
1:50 PM66 °FPassing clouds.14 mph40%30.21 "HgN/A
1:20 PM66 °FSunny.15 mph43%30.21 "Hg10 mi
12:50 PM66 °FPassing clouds.15 mph35%30.21 "HgN/A
12:20 PM66 °FPassing clouds.15 mph35%30.21 "HgN/A
11:50 AM66 °FPassing clouds.17 mph40%30.21 "HgN/A
11:20 AM66 °FScattered clouds.16 mph37%30.21 "HgN/A
10:50 AM64 °FScattered clouds.16 mph43%30.18 "HgN/A
10:20 AM64 °FScattered clouds.18 mph46%30.18 "HgN/A
9:50 AM64 °FScattered clouds.17 mph46%30.18 "HgN/A
9:20 AM64 °FScattered clouds.18 mph49%30.18 "HgN/A
8:50 AM61 °FPartly sunny.20 mph59%30.15 "HgN/A
8:20 AM63 °FScattered clouds.16 mph49%30.15 "HgN/A
7:50 AM61 °FScattered clouds.16 mph48%30.15 "HgN/A
7:20 AM59 °FScattered clouds.12 mph51%30.12 "HgN/A
Weather by CustomWeather, © 2015

See weather overviewHow to use our weather pages